Location: Unspecified
(40.9447°N, 78.9903°W)
Time: 23:40:07
(UTC-04:00)

Hubble Space Telescope - Pass Details

Date: 26 July 2021
Orbit: 535 x 539 km, 28.5° (Epoch: 22 September)

Event Time Altitude Azimuth Distance (km) Brightness Sun altitude
Rises 21:02:45 0° 232° (SW) 2,664 4.6 -5.0°
Reaches altitude 10° 21:05:58 10° 206° (SSW) 1,774 3.4 -5.5°
Maximum altitude 21:08:03 14° 175° (S) 1,555 2.8 -5.8°
Drops below altitude 10° 21:10:07 10° 144° (SE) 1,773 2.8 -6.2°
Enters shadow 21:11:03 - 134° (SE) 1,984 3.0 -6.3°
